Regional Weather Roundup
Issued by NWS Upton, NY

Current Version | Previous Version | Graphics & Text | Print | Product List | Glossary Off
Versions: 1 2 3 4 5 6 7 8 9 10 11 12 13 14 15 16 17 18 19 20 21 22 23 24 25 26 27 28

000
ASUS41 KOKX 250308
RWROKX

REGIONAL WEATHER ROUNDUP
NATIONAL WEATHER SERVICE NEW YORK NY
1100 PM EDT SUN SEP 24 2017

NOTE: "FAIR" INDICATES FEW OR NO CLOUDS BELOW 12,000 FEET WITH NO
SIGNIFICANT WEATHER AND/OR OBSTRUCTIONS TO VISIBILITY.

NYZ071-072-176-178-NJZ106-104-250400-
NEW YORK CITY METRO AREA

CITY           SKY/WX    TMP DP  RH WIND       PRES   REMARKS
Central Park   CLEAR     77  62  59 CALM      30.08S
Bronx Bot Gard   N/A     72  61  68 CALM      30.06F
LaGuardia APRT PTCLDY    77  63  61 S3        30.04F
Kennedy INTL   CLEAR     71  63  75 S5        30.06S
Breezy Point     N/A     72 N/A N/A E2          N/A
Newark/Liberty CLEAR     75  66  73 S3        30.05S
Teterboro      CLEAR     75  64  68 CALM      30.04S
$$

NYZ177-179-078>081-250400-
LONG ISLAND NEW YORK

CITY           SKY/WX    TMP DP  RH WIND       PRES   REMARKS
Jones Beach      N/A     72 N/A N/A S2          N/A
Matinecock PT    N/A     73 N/A N/A CALM        N/A
Farmingdale    CLEAR     71  65  81 CALM      30.06S
MacArthur/ISP  CLEAR     70  63  78 S3        30.06S
Shirley        CLEAR     71  65  81 S3        30.06F
Mt Sinai Harb    N/A     70 N/A N/A S6          N/A
Westhampton    CLEAR     61  57  87 CALM      30.08S
East Hampton   FAIR      63  60  90 CALM      30.06S
Montauk          N/A     67  65  93 CALM      30.07S
$$

NYZ052-065-067-250400-
HUDSON VALLEY

CITY           SKY/WX    TMP DP  RH WIND       PRES   REMARKS
White Plains   CLEAR     71  66  84 W3        30.06F
Larchmont Harb   N/A     72 N/A N/A S1          N/A
Croton On Huds   N/A     72 N/A N/A MISG        N/A
Newburgh       CLEAR     72  68  88 CALM      30.08S
Montgomery     CLEAR     68  67  96 CALM      30.06F
Poughkeepsie   CLEAR     68  65  90 CALM      30.05S
Albany         CLEAR     71  67  87 CALM      30.06S
$$

NJZ001-105-106-008-010-013-015-019>022-104-250400-
NEW JERSEY

CITY           SKY/WX    TMP DP  RH WIND       PRES   REMARKS
Newark/Liberty CLEAR     75  66  73 S3        30.05S
Teterboro      CLEAR     75  64  68 CALM      30.04S
Caldwell       CLEAR     72  69  90 CALM      30.06F
Somerville     NOT AVBL
Linden         FAIR      76  66  71 CALM      30.05F
Perth Amboy      N/A     75 N/A N/A CALM        N/A
Sussex         CLEAR     68  67  96 CALM      30.08S
Andover          N/A     68  67  96 CALM      30.09S
Trenton        CLEAR     74  66  76 CALM      30.05S
Millville      CLEAR     68  67  96 N3        30.05F
Atlantic City  CLEAR     65  63  93 CALM      30.05F
Wrightstown    CLEAR     69  64  84 CALM      30.03S
Toms River     CLEAR     66  63  90 CALM      30.06F
Belmar         CLEAR     70  63  78 CALM      30.07S
$$

PAZ047>061-062-071-250400-
EASTERN PENNSYLVANIA

CITY           SKY/WX    TMP DP  RH WIND       PRES   REMARKS
Philadelphia   CLEAR     74  67  78 S5        30.05F
Allentown      CLEAR     74  66  76 CALM      30.07S
Scranton       CLEAR     72  65  78 E7        30.11S
$$

CTZ002-004>006-009-010-012-RIZ004-006-007-MAZ004-011-015-250400-
SOUTHERN NEW ENGLAND
 IN CT

CITY           SKY/WX    TMP DP  RH WIND       PRES   REMARKS
Bradley INTL   CLEAR     72  69  90 CALM      30.04S
Hartford       CLEAR     71  67  87 CALM      30.04R
Danbury        CLEAR     68  66  93 SW5       30.08S
Wtrbury/Oxford CLEAR     69  64  84 CALM      30.09R
Norwalk Harbor   N/A     72 N/A N/A SW3         N/A
Bridgeport     CLEAR     74  68  81 CALM      30.05S
Meriden        CLEAR     67  64  90 CALM      30.05S
New Haven      CLEAR     68  63  84 CALM      30.06S
Chester        FAIR      70  61  73 CALM      30.07S
Groton         CLEAR     65  61  87 CALM      30.05S
Wilimantic     CLEAR     70  66  87 CALM      30.06R

 IN RI

CITY           SKY/WX    TMP DP  RH WIND       PRES   REMARKS
Providence     CLEAR     68  64  87 CALM      30.06S
Block Island   CLEAR     67  63  87 S3        30.06
Westerly       CLEAR     65  62  90 CALM      30.06S
 IN MA

CITY           SKY/WX    TMP DP  RH WIND       PRES   REMARKS
Boston         CLEAR     68  64  87 SE5       30.04S
Worcester      CLEAR     69  63  81 SW3       30.09R
Westfield      CLEAR     67  66  97 S3        30.05R
Provincetown   CLEAR     65  64  97 S5        30.06S
Nantucket      FOG       60  60 100 CALM      30.05F VSB 1/4
$$

ANZ330-335-338-340-345-350-353-355-250400-
COASTAL MARINE OBSERVATIONS


STATION/POSITION TIME  SKY/WX   TEMP    WIND        PRES    VSBY  WAVE
                                AIR SEA DIR/SP/G                  HT/PER
                 (UTC)          (F)     (DEG/KT/KT) (MB)    (MI)  (FT/S)
NY HARB ENTRANCE 0150            72 72  220/  6/  6 1017.0          4/10
20 S FIRE ISLAND 0150            69 68  220/  2/  2 1017.9          4/13
GREAT SOUTH BAY  0230            72 73  220/  4/  4   N/A
23 SSW MONTAUK P 0150            66 65              1017.9          5/11
15 E BARNEGAT LI 0230               70                N/A           4/12
HUDSON CANYON    0150            67 69  110/  4/  6 1017.1          6/13
KINGS POINT      0224            74 73  190/  5/  6 1018.4
EXECUTION ROCKS  0245            74     180/  2/  4   N/A
WESTERN LI SOUND NOT AVBL
CENTRAL LI SOUND 0230            72     210/  8/ 10   N/A           0
EASTERN LI SOUND NOT AVBL
ROBBINS REEF     0224            75     140/  4/  4 1018.4
$$


>>>>>>>>>>>>>>>>>>>>>>>>>>>> KEY <<<<<<<<<<<<<<<<<<<<<<<<<<<
>                                                          <
>     SKY/WX - Sky Condition/Present Weather               <
>     TMP    - Temperature in Fahrenheit                   <
>     DP     - Dew Point in Fahrenheit                     <
>     RH     - Relative Humidity in Percent                <
>     WIND   - Direction (from) and Speed in MPH           <
>     PRES   - Mean Sea Level Pressure (inches of Hg)      <
>     WCI    - Wind Chill Index                            <
>     VSB    - VISIBILITY IN MILES                         <
>     HX     - HEAT INDEX                                  <
>     TC     - TEMPERATURE IN CELSIUS                      <
>     VRB    - VARIABLE WIND DIRECTION                     <
>                                                          <
>>>>>>>>>>>>>>>>>>>>>>>>>>>> KEY <<<<<<<<<<<<<<<<<<<<<<<<<<<




USA.gov is the U.S. government's official web portal to all federal, state and local government web resources and services.